Trenton, NJ

1:41 AM EST on December 11, 2019 (GMT -0500)
Trenton Mercer

Weather History for KTTN - October, 2019

Change the Weather History Date:

Monday, October 7, 2019

  Actual Average Record
Temperature  
Mean Temperature 69 °F 58 °F  
Max Temperature 79 °F 68 °F 86 °F (2007)
Min Temperature 59 °F 47 °F 35 °F (2003)
Degree Days  
Heating Degree Days 0 8  
Month to date heating degree days 32 49  
Since 1 July heating degree days 50 114  
Cooling Degree Days 4 1  
Month to date cooling degree days 26 7  
Year to date cooling degree days 1163 962  
Growing Degree Days 19 (Base 50)    
Moisture  
Dew Point 60 °F    
Average Humidity 75    
Maximum Humidity 97    
Minimum Humidity 52    
Precipitation  
Precipitation 0.19 in 0.15 in 2.20 in (1951)
Month to date precipitation 0.57 1.07  
Year to date precipitation 39.23 36.32  
Sea Level Pressure  
Sea Level Pressure 30.12 in    
Wind  
Wind Speed 8 mph ()    
Max Wind Speed 22 mph    
Max Gust Speed 32 mph    
Visibility 8.6 miles    
Events Rain    
T = Trace of Precipitation, MM = Missing Value Source: Averaged Metar Reports

Daily Weather History Graph

Daily Weather History Graph

Search for Another Location

Airport or City:

Astronomy

Oct. 07, 2019 Rise Set
Actual Time 7:01 AM EDT 6:32 PM EDT
Civil Twilight 6:34 AM EDT 6:59 PM EDT
Nautical Twilight 6:02 AM EDT 7:30 PM EDT
Astronomical Twilight 5:31 AM EDT 8:02 PM EDT
Moon 3:53 PM EDT (10/7) 12:51 AM EDT (10/7)
Length of Visible Light 12h 25m
Length of Day
11h 30m
Waxing Gibbous, 69% of the Moon is Illuminated
Oct 7
Waxing Gibbous
Oct 13
Full
Oct 21
Last Quarter
Oct 27
New
Nov 4
First Quarter

Hourly Weather History & Observations

Time (EDT) Temp. Dew Point Humidity Pressure Visibility Wind Dir Wind Speed Gust Speed Precip Events Conditions
12:53 AM 68.0 °F 61.0 °F 78% 30.19 in 10.0 mi South 8.1 mph - N/A   Overcast
1:53 AM 68.0 °F 60.1 °F 76% 30.18 in 10.0 mi South 6.9 mph - N/A   Overcast
2:53 AM 68.0 °F 61.0 °F 78% 30.16 in 10.0 mi South 9.2 mph - N/A   Overcast
3:53 AM 68.0 °F 61.0 °F 78% 30.14 in 10.0 mi South 9.2 mph - N/A   Overcast
4:53 AM 68.0 °F 60.1 °F 76% 30.14 in 10.0 mi South 8.1 mph - N/A   Overcast
5:53 AM 68.0 °F 60.1 °F 76% 30.15 in 10.0 mi South 8.1 mph - N/A   Overcast
6:53 AM 68.0 °F 60.1 °F 76% 30.15 in 10.0 mi South 10.4 mph - N/A   Overcast
7:53 AM 68.0 °F 60.1 °F 76% 30.15 in 10.0 mi SSW 6.9 mph - N/A   Overcast
8:53 AM 69.1 °F 61.0 °F 75% 30.15 in 10.0 mi South 6.9 mph - N/A   Overcast
9:53 AM 71.1 °F 62.1 °F 73% 30.14 in 10.0 mi SSW 12.7 mph - N/A   Mostly Cloudy
10:53 AM 75.0 °F 61.0 °F 62% 30.13 in 10.0 mi South 16.1 mph 24.2 mph N/A   Overcast
11:53 AM 75.0 °F 61.0 °F 62% 30.12 in 10.0 mi SSW 13.8 mph - N/A   Overcast
12:53 PM 77.0 °F 59.0 °F 54% 30.10 in 10.0 mi SSW 16.1 mph 32.2 mph N/A   Mostly Cloudy
1:53 PM 79.0 °F 60.1 °F 52% 30.06 in 10.0 mi SSW 16.1 mph - N/A   Mostly Cloudy
2:53 PM 77.0 °F 59.0 °F 54% 30.05 in 10.0 mi SW 16.1 mph - N/A   Overcast
3:53 PM 78.1 °F 60.1 °F 54% 30.04 in 10.0 mi SSW 11.5 mph - N/A   Mostly Cloudy
4:53 PM 77.0 °F 59.0 °F 54% 30.03 in 10.0 mi SSW 11.5 mph - N/A   Scattered Clouds
5:53 PM 75.0 °F 59.0 °F 57% 30.03 in 10.0 mi South 5.8 mph - N/A   Mostly Cloudy
6:53 PM 73.9 °F 61.0 °F 64% 30.04 in 10.0 mi SSW 3.5 mph - N/A   Overcast
7:53 PM 69.1 °F 63.0 °F 81% 30.07 in 10.0 mi North 9.2 mph - N/A   Overcast
8:29 PM 66.0 °F 63.0 °F 90% 30.11 in 2.5 mi NNW 10.4 mph - 0.06 in Rain Heavy Rain
8:39 PM 64.9 °F 62.1 °F 90% 30.11 in 5.0 mi NNW 13.8 mph - 0.07 in Rain Rain
8:53 PM 64.0 °F 61.0 °F 90% 30.10 in 8.0 mi North 8.1 mph - 0.08 in Rain Light Rain
9:53 PM 61.0 °F 59.0 °F 93% 30.14 in 6.0 mi North 6.9 mph - 0.03 in Rain Light Rain
10:53 PM 60.1 °F 57.9 °F 93% 30.16 in 2.5 mi NNE 5.8 mph - 0.06 in Rain Rain
11:05 PM 60.1 °F 57.9 °F 93% 30.19 in 3.0 mi Variable 3.5 mph - 0.01 in Rain Light Rain
11:22 PM 59.0 °F 57.9 °F 96% 30.20 in 4.0 mi NNW 5.8 mph - 0.02 in Rain Light Rain
11:53 PM 59.0 °F 57.0 °F 93% 30.17 in 9.0 mi North 6.9 mph - 0.02 in Rain Light Rain